Regional Weather Roundup
Issued by NWS

Home | Current Version | Previous Version | Text Only | Print | Product List | Glossary Off
Versions: 1 2 3 4 5 6 7 8 9 10 11 12 13 14 15 16 17 18 19 20 21 22 23 24 25 26 27 28 29 30 31 32 33 34 35 36 37 38 39 40 41 42 43 44 45 46 47 48 49 50

000
ASUS43 KDMX 280007
RWRIA

WEATHER ROUNDUP FOR IOWA
NATIONAL WEATHER SERVICE DES MOINES IA
700 PM CDT WED AUG 27 2014

NOTE: "FAIR" INDICATES FEW OR NO CLOUDS BELOW 12,000 FEET WITH NO
SIGNIFICANT WEATHER AND/OR OBSTRUCTIONS TO VISIBILITY.

* - THESE STATIONS ARE NOT NWS STATIONS...THUS NOT UNDER NWS
QUALITY CONTROL.  THEY ALSO DO NOT REPORT WEATHER SUCH
AS PRECIPITATION OR FOG.

IAZ001>003-012>014-020>022-031>034-043>046-280100-
   NORTHWEST IOWA

CITY           SKY/WX    TMP DP  RH WIND       PRES   REMARKS
CARROLL *      PTSUNNY   72  68  88 SE5       30.08S
DENISON *      CLOUDY    72  70  94 SE7       30.07S
LE MARS *      CLOUDY    72  68  88 SE3       30.08S
ORANGE CITY *  CLOUDY    73  66  78 E3        30.08F
SHELDON *      MOSUNNY   70  66  88 E5        30.08F
SIOUX CITY     CLOUDY    72  68  87 E6        30.06S
6HR MIN TEMP:  67; 6HR MAX TEMP:  73; 6HR PCP:  0.01;

SPENCER        CLOUDY    72  64  76 SE6       30.10F
6HR MIN TEMP:  69; 6HR MAX TEMP:  75;

STORM LAKE *   CLOUDY    70  70 100 E7        30.09F
$$

IAZ055>058-069>071-079>083-090>094-280100-
   SOUTHWEST IOWA

CITY           SKY/WX    TMP DP  RH WIND       PRES   REMARKS
ATLANTIC *     CLOUDY    72  70  94 E5        30.07F
AUDUBON *      PTSUNNY   73  70  88 SE3       30.10S
CLARINDA *     CLOUDY    73  70  88 CALM      30.08S
COUNCIL BLFS * MOSUNNY   73  72  94 SE5       30.05F
CRESTON *      MOCLDY    72  70  94 CALM      30.09S
HARLAN  *      CLOUDY    72  70  94 SE6       30.11F
LAMONI         MOCLDY    75  70  84 CALM      30.07F
6HR MIN TEMP:  73; 6HR MAX TEMP:  76;

RED OAK *      CLOUDY    73  70  88 SE7       30.06F
SHENANDOAH *   MOSUNNY   73  72  94 E8        30.06S
$$

IAZ047>049-059>061-072>074-084-280100-
   CENTRAL IOWA

CITY           SKY/WX    TMP DP  RH WIND       PRES   REMARKS
AMES           CLOUDY    73  66  78 E6        30.08S
6HR MIN TEMP:  72; 6HR MAX TEMP:  76;

ANKENY *       MOCLDY    73  68  83 E3        30.07S
CHARITON *     CLEAR     73  70  88 E6        30.07F
DES MOINES     CLOUDY    75  67  76 SE8       30.07S
6HR MIN TEMP:  73; 6HR MAX TEMP:  76; 6HR PCP: TRACE;

GRINNELL*      MOCLDY    72  66  83 E6        30.09S
KNOXVILLE *    MOCLDY    73  68  83 SE3       30.07S
MARSHALLTOWN   MOCLDY    72  65  78 E5        30.09F
6HR MIN TEMP:  72; 6HR MAX TEMP:  76;

PELLA *        MOCLDY    74  67  78 E5        30.08F
PERRY *          N/A     73  68  83 SE5       30.08R
$$

IAZ004>006-015-016-023>025-035-036-280100-
   NORTH CENTRAL IOWA

CITY           SKY/WX    TMP DP  RH WIND       PRES   REMARKS
ALGONA *       SUNNY     72  63  73 E6        30.10F
CLARION *      CLEAR     72  64  78 E6        30.09F
ESTHERVILLE    PTSUNNY   70  63  78 E5        30.10F
6HR MIN TEMP:  67; 6HR MAX TEMP:  72;

FORT DODGE *   MOCLDY    72  64  78 E7        30.09F
MASON CITY     MOCLDY    72  60  66 E5        30.12F
6HR MIN TEMP:  71; 6HR MAX TEMP:  75;

FOREST CITY *  CLEAR     70  61  73 SE3       30.11F
IOWA FALLS *     N/A     72  63  75 CALM      30.10F
$$

IAZ007>011-017>019-026>030-037>042-050>054-066-280100-
   NORTHEAST IOWA

CITY           SKY/WX    TMP DP  RH WIND       PRES   REMARKS
CEDAR RAPIDS   PTCLDY    73  66  78 SE3       30.09S
6HR MIN TEMP:  73; 6HR MAX TEMP:  78;

CHARLES CITY * CLEAR     72  61  68 E5        30.12S
CLINTON *      MOCLDY    73  63  68 NE8       30.11F
DECORAH *      CLEAR     70  61  73 CALM      30.12S
DUBUQUE        CLEAR     72  61  68 NE5       30.10F
6HR MIN TEMP:  72; 6HR MAX TEMP:  76;

MONTICELLO *   CLEAR     73  64  73 CALM      30.09S
OELWEIN *      CLEAR     70  63  78 NE5       30.12S
WATERLOO       MOCLDY    73  60  63 E5        30.09F
6HR MIN TEMP:  73; 6HR MAX TEMP:  77;

$$

IAZ064-065-067-068-078-280100-
   EAST CENTRAL IOWA

CITY           SKY/WX    TMP DP  RH WIND       PRES   REMARKS
DAVENPORT      MOCLDY    73  62  68 E6        30.09S
6HR MIN TEMP:  73; 6HR MAX TEMP:  77;

IOWA CITY      CLEAR     74  63  68 E7        30.10S
6HR MIN TEMP:  74; 6HR MAX TEMP:  77;

MT. PLEASANT * PTCLDY    75  68  77 NE5       30.08R
MUSCATINE *    CLEAR     75  66  73 NE7       30.08S
QUAD CITIES    MOCLDY    76  62  62 E8        30.08S
6HR MIN TEMP:  76; 6HR MAX TEMP:  80;

$$

IAZ062-063-075>077-085>089-095>099-280100-
   SOUTHEAST IOWA

CITY           SKY/WX    TMP DP  RH WIND       PRES   REMARKS
BURLINGTON     PTCLDY    77  70  79 NE7       30.07S
6HR MIN TEMP:  76; 6HR MAX TEMP:  80; 6HR PCP: TRACE;

FAIRFIELD *    CLEAR     75  70  83 E3        30.07F
FORT MADISON * CLEAR     77  73  88 CALM      30.08R
KEOKUK *       CLEAR     77  70  78 N3        30.06S
OSKALOOSA *      N/A     73  69  86 NE5       30.08S
CENTERVILLE *  PTCLDY    75  72  88 E5        30.09S
OTTUMWA        MOCLDY    75  68  78 NE5       30.07S
6HR MIN TEMP:  70; 6HR MAX TEMP:  77; 6HR PCP: TRACE;

WASHINGTON *   MOCLDY    73  70  88 NE6       30.08S
$$

ABBREVIATIONS USED IN REMARKS
   TC - TEMPERATURES IN CELSIUS
  WCI - WIND CHILL INDEX
   HX - HEAT INDEX
  VSB - VISIBILITY
$$




USA.gov is the U.S. government's official web portal to all federal, state and local government web resources and services.